Theta_e
316 315 315 309 312 317 320 321 322 323 323 323 323 323 322 321 321 320 320 318 317 317 317 316 315 315 314 315 319 318 310 313 318 324 325 322 322 324 325 328 329 329 328 326 325
317 316 315 315 308 312 317 319 319 318 318 319 319 319 317 316 315 316 316 316 315 315 315 314 314 313 313 316 318 312 309 311 312 320 322 321 321 322 324 325 325 329 328 326 323
317 316 317 317 315 307 311 315 317 317 316 316 315 315 314 313 311 312 313 313 313 313 312 312 312 312 313 315 316 314 310 311 319 323 322 321 321 321 322 322 325 328 328 326 322
315 316 317 317 318 312 307 309 312 314 314 314 313 312 311 308 309 311 309 309 310 311 311 310 311 312 312 313 316 316 316 318 321 322 321 320 320 320 323 323 324 326 327 324 322
313 315 316 316 317 317 308 307 308 309 309 309 308 307 305 304 306 308 309 309 309 309 308 308 310 312 311 312 316 316 316 321 321 321 321 321 319 320 320 322 323 325 326 322 322
312 314 316 315 316 317 316 307 307 306 306 305 305 305 304 304 305 304 308 311 311 311 309 307 310 312 313 313 313 316 317 318 320 320 320 321 320 320 320 321 322 326 324 323 324
308 312 313 315 316 315 317 314 308 307 307 307 306 306 306 304 306 305 306 308 310 312 309 309 314 314 314 315 318 316 316 315 317 319 319 316 318 318 319 320 322 325 325 325 326
310 310 313 315 315 316 316 317 313 311 310 308 307 308 307 307 306 307 307 307 309 312 311 313 316 316 315 316 315 313 311 314 312 317 317 316 318 315 318 319 319 321 324 325 322
309 310 312 312 314 316 315 317 315 312 309 309 309 308 310 311 310 308 307 308 313 317 315 315 317 317 317 312 312 311 309 312 312 313 315 314 314 313 313 314 316 318 318 319 319
307 310 309 312 313 315 314 317 316 311 310 310 310 310 311 312 312 309 308 313 319 321 319 318 317 314 313 310 308 311 312 311 311 311 313 313 312 310 312 313 314 314 315 315 318
307 309 309 310 311 314 314 317 313 313 312 311 312 312 312 312 313 312 310 316 319 320 315 316 315 316 317 312 310 310 310 309 309 309 315 312 311 311 313 313 313 314 314 315 314
307 308 311 309 310 313 315 316 314 313 313 314 314 312 313 312 313 313 310 317 318 316 314 313 314 313 314 312 313 312 312 313 313 314 313 312 312 310 311 312 315 315 315 314 315
306 307 308 309 309 308 311 315 315 314 314 313 313 313 313 312 312 313 312 317 312 312 313 313 310 312 314 314 314 314 312 313 313 312 311 308 309 308 307 311 313 314 315 314 314
301 305 307 308 309 308 309 315 315 315 312 312 313 313 312 312 311 312 314 314 313 311 310 311 311 311 311 313 313 315 311 313 315 312 312 309 309 308 308 306 308 310 312 312 313
301 301 304 307 310 306 307 312 314 313 315 310 313 313 313 312 310 311 314 312 311 310 310 306 311 311 312 312 312 313 310 311 313 312 313 312 312 308 306 308 306 309 310 311 311
301 301 305 305 308 309 307 312 312 311 313 311 312 313 312 310 311 311 314 312 311 311 309 308 312 311 310 311 311 310 311 309 308 310 308 310 309 303 303 308 309 309 309 310 310
300 301 302 305 306 308 308 312 311 314 306 312 312 313 312 312 311 311 312 311 310 311 310 311 312 312 312 312 312 312 310 307 309 312 308 306 309 306 305 305 307 308 307 308 309
298 300 301 304 306 308 308 309 312 310 307 308 311 313 313 312 312 311 313 312 309 306 308 309 309 313 311 312 312 311 308 306 306 309 307 307 310 309 307 307 308 309 308 307 308
301 299 301 302 304 305 306 305 312 309 305 311 311 311 312 312 311 312 312 312 310 307 308 308 308 310 311 311 311 313 313 306 307 298 306 308 307 305 306 306 306 306 307 308 309
301 300 300 301 302 305 303 308 307 305 307 310 311 311 311 312 311 312 312 311 309 309 308 308 308 310 311 311 311 312 309 312 304 304 306 307 307 308 307 309 306 304 306 308 308
300 300 300 300 302 304 305 304 305 305 308 307 308 310 309 311 309 311 311 309 309 309 309 308 308 311 311 313 313 313 312 311 308 305 307 305 307 303 306 305 306 305 308 308 308
300 299 300 300 300 300 304 304 304 303 305 304 305 306 308 310 310 311 310 309 310 310 311 307 308 308 313 309 307 310 311 309 308 310 305 306 307 303 304 306 306 307 309 308 308
299 300 301 301 299 302 302 304 306 304 304 305 306 307 307 309 311 309 308 309 309 309 310 309 306 311 309 313 309 312 311 310 307 307 309 309 308 303 305 306 307 309 309 308 308
299 299 299 302 301 300 304 305 305 306 307 303 303 306 307 309 306 308 308 306 309 309 310 309 307 307 308 307 309 312 312 312 312 314 311 309 307 307 305 305 306 307 307 308 307
299 298 299 299 301 301 304 305 306 307 305 304 306 308 307 306 306 307 307 307 307 309 309 310 307 307 308 307 308 309 311 309 312 312 314 310 306 306 306 306 306 308 308 308 307
298 298 298 299 301 301 303 305 307 305 304 304 307 307 306 307 308 305 307 308 308 307 307 308 311 308 305 306 304 308 308 310 311 310 310 310 308 305 308 307 308 310 311 310 308
298 300 300 300 301 303 303 304 307 306 303 304 304 306 305 306 306 308 308 308 307 309 308 307 308 308 310 302 306 306 302 306 308 307 310 311 311 309 308 308 310 310 308 308 303
Wind_Speed
26 26 24 24 24 22 25 21 18 18 17 17 16 15 15 16 16 16 14 13 12 13 13 14 11 11 8 4 4 2 4 2 4 5 3 7 3 8 7 13 9 12 7 8 16
27 25 25 24 24 24 23 24 22 17 16 16 16 15 14 14 15 17 15 15 15 14 14 12 11 8 3 3 2 4 3 7 4 3 2 2 3 12 6 10 5 12 11 12 19
25 26 24 24 23 24 24 22 19 18 17 15 14 14 13 11 12 11 14 16 17 15 14 12 7 4 1 2 1 2 4 3 1 1 2 2 2 8 8 3 11 24 19 20 22
21 27 25 23 22 22 23 23 21 19 18 16 14 13 12 9 5 2 7 9 13 14 12 10 5 2 1 1 1 2 1 1 1 3 2 2 1 4 12 5 12 16 19 25 24
16 20 25 23 23 21 21 22 21 20 19 17 15 13 11 9 10 7 3 4 6 8 9 10 8 5 4 3 2 2 2 1 2 3 3 2 2 2 7 5 9 17 23 24 21
24 19 26 23 23 22 21 20 20 19 18 17 15 14 14 6 10 12 9 4 0 2 6 10 6 7 4 2 4 2 2 1 0 1 1 1 1 0 4 3 10 19 23 21 20
23 24 26 25 23 23 21 20 19 18 17 16 15 14 14 17 7 11 14 9 3 1 3 9 6 7 7 3 4 3 2 3 2 2 0 2 3 5 4 6 9 17 20 19 16
26 33 17 19 26 23 23 21 20 19 18 17 15 15 8 11 16 9 12 13 7 3 5 9 6 4 3 7 5 4 4 2 2 2 1 4 7 1 8 8 9 13 16 18 17
22 30 31 22 27 23 24 22 21 19 18 17 16 11 6 8 15 14 10 11 9 6 8 9 7 3 4 6 3 4 4 4 6 7 2 3 5 6 7 9 14 16 16 19 18
25 27 26 26 25 25 25 24 24 21 19 17 11 6 10 8 13 19 10 11 9 9 8 6 3 3 2 3 6 5 3 2 3 1 1 1 9 7 7 6 9 9 13 18 20
23 22 27 24 30 26 26 26 20 12 28 9 17 4 7 9 11 14 15 12 10 9 4 3 3 7 10 4 3 6 4 3 3 3 2 6 7 10 21 15 19 19 17 13 23
19 25 24 27 38 23 26 24 24 8 10 11 13 10 6 10 5 14 17 9 6 4 6 4 5 3 5 4 5 3 3 2 1 2 3 5 10 11 11 14 25 29 28 24 18
23 22 21 27 24 33 30 38 19 22 5 7 15 13 12 13 5 18 19 9 5 5 4 5 1 9 5 3 5 3 5 3 2 4 2 6 7 6 5 13 22 28 30 28 27
25 23 17 18 23 33 20 31 23 20 3 6 10 9 13 10 2 18 20 8 2 7 6 3 1 6 4 4 5 3 5 3 2 3 3 3 5 6 5 8 6 10 15 27 27
19 21 23 24 13 27 30 34 28 15 6 11 10 9 18 12 16 10 17 6 7 6 7 6 5 4 3 4 5 6 4 6 2 3 2 1 2 7 3 7 7 4 3 7 17
21 19 18 24 20 26 25 31 22 6 7 7 10 12 10 5 4 8 9 6 7 4 3 4 1 5 8 3 7 7 6 7 4 3 2 6 6 4 4 4 4 2 4 7 13
20 19 21 20 20 23 29 30 8 8 3 9 7 13 17 8 5 5 10 8 6 5 4 2 1 1 3 6 3 3 6 3 3 1 5 2 3 8 8 6 5 5 7 11 15
15 21 21 23 29 21 36 8 8 3 9 4 10 16 12 12 4 5 13 11 5 4 4 5 3 7 5 5 6 4 5 5 6 4 4 2 5 5 3 5 4 5 13 14 15
15 19 24 23 20 23 24 6 3 7 6 13 17 19 8 10 7 7 13 11 11 8 6 5 4 0 2 3 6 5 4 4 5 2 2 4 6 8 2 5 6 12 15 13 12
18 14 22 21 16 15 4 9 4 3 9 17 10 11 16 19 8 14 13 11 7 7 1 6 2 1 1 3 4 5 8 2 2 2 4 4 5 5 3 1 2 6 11 12 9
18 6 4 23 16 15 3 4 3 13 11 7 6 7 10 14 9 13 13 2 11 10 8 5 3 2 4 4 8 4 3 3 4 4 4 1 5 5 2 4 6 10 12 10 8
17 2 8 19 5 4 4 8 7 7 5 4 5 5 10 19 9 15 12 7 23 21 10 6 4 3 8 2 2 1 5 5 4 4 3 2 5 3 4 2 12 15 13 8 5
15 4 11 24 5 5 1 4 7 3 4 5 4 3 4 10 6 6 7 8 19 15 15 7 2 4 2 1 3 4 4 5 4 3 6 5 4 4 1 5 12 15 13 8 2
10 3 3 15 6 10 2 6 9 15 8 1 6 5 9 11 3 9 8 2 17 17 17 13 3 5 8 4 6 6 8 10 11 8 4 6 2 3 2 4 6 10 9 3 1
10 6 10 5 9 8 10 7 9 6 4 9 4 11 11 6 4 5 5 3 4 14 9 4 5 4 1 2 2 4 9 10 18 15 10 6 9 9 8 7 11 8 11 14 15
12 7 8 2 11 13 15 10 15 5 7 9 12 15 10 11 17 10 10 6 7 4 5 1 3 3 2 2 3 5 10 12 14 7 9 3 5 5 18 9 7 13 25 31 22
20 17 18 10 6 11 14 18 18 13 12 9 4 10 8 6 13 18 11 21 12 13 7 7 5 3 4 3 3 9 8 10 7 6 11 13 15 9 11 19 28 31 27 25 18
Wind_Direction
235 235 234 232 227 234 233 235 224 225 230 240 245 250 258 264 268 268 270 271 277 281 290 298 307 315 337 16 32 33 66 157 206 156 263 165 144 168 170 152 169 180 165 154 175
230 231 233 231 230 224 222 232 229 225 231 239 243 249 256 266 270 265 263 265 268 272 279 291 306 327 349 7 38 75 107 210 187 180 173 243 186 163 162 162 188 187 178 170 177
227 225 228 230 226 226 225 223 226 229 231 234 235 242 253 267 285 267 255 255 256 259 264 273 288 325 14 349 30 121 181 188 133 126 262 252 193 176 155 240 201 196 190 178 178
237 219 220 224 226 220 223 223 223 222 223 225 231 236 245 245 231 271 249 246 247 248 248 249 239 196 107 167 176 144 229 196 21 4 125 175 239 190 184 214 223 213 197 181 182
243 229 217 218 220 217 216 218 218 219 220 222 223 226 224 219 234 255 269 253 253 246 236 221 196 171 180 170 134 166 181 122 111 69 60 156 165 228 219 239 213 192 188 187 189
236 243 220 214 218 215 212 211 214 213 214 215 214 212 212 222 252 236 229 235 244 231 213 201 202 186 162 171 162 164 144 89 139 129 55 163 198 170 203 188 183 186 189 193 194
245 244 236 220 216 214 208 205 205 206 207 209 209 207 213 230 236 224 216 213 196 103 202 185 171 177 160 131 133 112 97 1 249 192 240 39 269 231 165 165 163 184 193 198 199
228 233 230 243 211 213 206 199 198 199 202 198 198 199 224 235 228 228 217 213 209 199 167 167 154 166 136 127 55 87 50 131 313 139 208 123 256 183 201 199 182 183 196 202 205
235 220 228 225 207 203 204 199 195 194 191 189 188 186 231 218 216 209 201 192 191 175 158 167 157 139 124 97 43 357 205 204 320 201 149 158 245 244 204 211 215 211 210 216 218
226 227 225 221 222 209 198 200 189 180 177 173 185 190 229 210 202 196 183 171 163 164 152 170 152 93 52 131 209 184 175 225 230 320 119 198 253 270 218 230 225 211 218 226 220
227 234 218 225 224 216 190 192 149 171 178 188 185 180 150 167 176 189 189 163 155 165 150 126 134 194 198 163 129 131 129 182 236 277 190 237 261 262 266 273 268 258 243 230 218
226 228 222 219 224 212 197 198 172 167 165 198 178 178 139 155 141 172 172 155 155 158 125 63 234 192 142 121 110 116 128 234 266 16 172 322 280 270 246 252 252 255 254 243 220
225 226 227 217 220 242 244 210 182 148 122 195 170 173 159 173 167 176 175 149 120 127 160 162 215 165 145 151 139 146 157 174 144 354 46 340 285 275 283 248 254 254 252 248 228
230 225 225 228 213 224 253 212 187 167 150 187 181 196 167 163 164 176 173 153 133 161 129 213 247 147 132 171 131 194 208 148 122 66 244 36 288 303 290 295 259 254 256 244 232
227 222 219 211 206 218 236 213 183 183 206 169 161 183 174 166 138 175 171 150 154 152 126 235 156 125 126 187 142 224 148 150 112 99 33 300 290 271 317 285 280 217 229 221 216
222 217 214 215 221 221 228 211 191 150 205 168 146 158 142 147 127 132 157 149 134 112 89 187 157 161 187 156 156 153 84 51 50 69 319 226 189 274 246 245 322 316 189 175 177
218 216 215 220 221 211 204 182 198 216 180 154 171 166 158 155 119 145 174 164 151 126 182 136 204 297 146 93 58 127 106 25 352 234 229 329 197 248 266 290 302 255 177 156 157
217 212 219 220 220 203 203 225 211 140 160 141 154 157 170 142 172 156 162 187 229 106 115 145 284 177 190 180 169 174 143 155 204 197 264 104 238 248 192 1 347 170 152 149 155
214 214 222 217 224 227 182 214 237 167 162 139 139 166 166 185 142 149 192 196 189 176 140 133 267 6 146 148 138 177 177 151 103 29 47 223 283 297 127 39 73 133 150 154 156
209 215 229 219 219 199 171 219 209 282 124 142 147 173 185 176 150 178 175 196 181 166 166 196 90 343 68 107 38 154 151 108 5 167 259 284 274 245 6 73 85 128 163 164 164
194 185 245 220 196 201 199 189 101 265 155 144 138 140 182 179 165 183 183 209 173 173 165 143 114 149 119 227 176 146 174 141 133 143 177 266 258 218 269 272 182 183 173 167 164
169 162 178 183 160 267 160 158 164 268 203 117 102 111 156 169 169 188 196 192 190 167 177 200 133 152 191 181 285 287 180 147 133 204 232 159 274 2 303 333 161 163 158 141 106
163 128 178 173 173 223 18 173 187 193 272 146 116 125 156 154 158 176 163 207 179 172 171 174 182 112 28 308 347 225 191 166 120 104 196 152 259 341 56 110 149 145 133 105 48
139 153 197 193 227 187 193 175 184 197 263 234 116 113 106 157 3 169 162 158 179 183 182 153 148 162 187 199 139 192 204 202 205 233 170 215 214 284 259 145 156 163 155 356 1
166 196 174 181 196 190 173 177 177 158 196 259 78 165 144 143 110 173 134 110 103 185 158 136 174 158 181 346 175 207 193 192 218 227 218 198 197 207 203 210 202 211 291 298 310
164 152 179 193 163 187 193 193 192 164 150 249 161 181 168 156 191 174 139 154 177 183 142 179 123 116 338 37 2 254 218 217 225 221 228 281 268 236 215 172 183 267 272 278 269
182 163 167 166 177 181 197 196 196 168 207 214 185 156 188 215 164 171 146 158 160 167 154 145 131 119 217 350 53 283 195 198 199 186 202 226 231 213 232 232 227 240 244 252 244